K6OUA-11 Weather Reports


time (UTC)temp
F
wind
direction
speed
knots
gust
knots
rain 1hr
in
rain 24hr
in
rain mn
in
humidity
%
barometer
mb
20210127123659 46 135 3.5 4.3 0.00 0.00 0.00 65 1013.1
20210127123402 46 135 4.3 4.3 0.00 0.00 0.00 65 1013.1
20210127123118 45 135 1.7 5.2 0.00 0.00 0.00 65 1013.1
20210127122455 45 135 2.6 5.2 0.00 0.00 0.00 65 1013.2
20210127122156 45 135 2.6 4.3 0.00 0.00 0.00 65 1013.2
20210127121254 45 135 3.5 5.2 0.00 0.00 0.00 64 1013.2
20210127120348 45 135 2.6 5.2 0.00 0.00 0.00 65 1013.2
20210127115751 45 135 2.6 5.2 0.00 0.00 0.00 64 1013.3
20210127115144 46 135 3.5 4.3 0.00 0.00 0.00 64 1013.4
20210127114547 46 135 1.7 3.5 0.00 0.00 0.00 64 1013.6
20210127114240 46 135 1.7 4.3 0.00 0.00 0.00 64 1013.6
20210127113639 46 112 5.2 7.8 0.00 0.00 0.00 64 1013.5
20210127113407 46 112 3.5 7.8 0.00 0.00 0.00 65 1013.4
20210127112735 46 112 6.1 8.7 0.00 0.00 0.00 65 1013.4
20210127112433 46 135 7.0 9.6 0.00 0.00 0.00 65 1013.3
20210127112132 46 135 5.2 6.1 0.00 0.00 0.00 65 1013.4
20210127111836 46 112 4.3 7.0 0.00 0.00 0.00 65 1013.5
20210127110938 46 90 4.3 7.8 0.00 0.00 0.00 66 1013.4
20210127110329 46 90 3.5 7.0 0.00 0.00 0.00 66 1013.5
20210127105727 46 87 5.2 7.0 0.00 0.00 0.00 65 1013.5
20210127104531 46 126 4.3 8.7 0.00 0.00 0.00 66 1013.8
20210127104218 46 135 6.1 8.7 0.00 0.00 0.00 66 1013.5
20210127102619 46 135 4.3 7.8 0.00 0.00 0.00 65 1013.8
20210127102407 46 135 4.3 7.8 0.00 0.00 0.00 65 1013.8
20210127102113 46 135 4.3 6.1 0.00 0.00 0.00 64 1013.8
20210126194831 59 315 2.6 3.5 0.00 0.00 0.00 37 1009.6
20210126194530 58 315 1.7 3.5 0.00 0.00 0.00 37 1009.4
20210126194416 58 315 1.7 7.0 0.00 0.00 0.00 37 1009.4
20210126194228 58 315 1.7 7.0 0.00 0.00 0.00 37 1009.4
20210126193746 58 315 3.5 6.1 0.00 0.00 0.00 37 1009.6
20210126193625 58 315 3.5 6.1 0.00 0.00 0.00 37 1009.6
20210126193453 58 315 3.5 3.5 0.00 0.00 0.00 37 1009.6
20210126193329 58 315 3.5 3.5 0.00 0.00 0.00 37 1009.6
20210126193028 58 315 1.7 7.0 0.00 0.00 0.00 37 1009.7
20210126192847 58 315 5.2 5.2 0.00 0.00 0.00 38 1009.6
20210126192722 58 315 5.2 5.2 0.00 0.00 0.00 38 1009.6